Regional Weather Roundup
Issued by NWS

Home | Current Version | Previous Version | Graphics & Text | Print | Product List | Glossary On
Versions: 1 2 3 4 5 6 7 8 9 10 11 12 13 14 15 16 17 18 19 20 21 22 23 24 25 26 27 28 29 30 31 32 33 34 35 36 37 38 39 40 41 42 43 44 45 46 47 48 49 50
000
ASUS43 KMPX 200910
RWRMN
WEATHER ROUNDUP FOR MINNESOTA
NATIONAL WEATHER SERVICE TWIN CITIES/CHANHASSEN MN
400 AM CDT SAT SEP 20 2014


NOTE: "FAIR" INDICATES FEW OR NO CLOUDS BELOW 12,000 FEET WITH NO
SIGNIFICANT WEATHER AND/OR OBSTRUCTIONS TO VISIBILITY. N/A MEANS
CURRENT SKY AND/OR WEATHER CONDITIONS ARE NOT AVAILABLE.

MNZ060>063-068>070-201000-
   Twin Cities Metro

CITY           SKY/WX    TMP DP  RH WIND       PRES   REMARKS
TWIN CITIES    CLOUDY    69  64  84 SW14      29.68F
ST PAUL        CLOUDY    69  65  86 SE5       29.67F
CRYSTAL        CLOUDY    71  66  84 SW9       29.67S
BLAINE         CLOUDY    72  70  94 SW7       29.68S
LAKEVILLE      CLOUDY    66  63  88 S3        29.70S
EDEN PRAIRIE   CLOUDY    68  65  90 SW10      29.69S
SOUTH ST PAUL  CLOUDY    69  64  85 SW7       29.68S
LAKE ELMO      FAIR      68  64  88 SW8       29.68F
$$
MNZ001>005-007-008-013>017-022>024-027-028-201000-
   Northwest Minnesota

CITY           SKY/WX    TMP DP  RH WIND       PRES   REMARKS
BEMIDJI        CLEAR     55  53  92 NW12      29.71R
HALLOCK        CLEAR     54  52  94 NW7       29.74S
ROSEAU         CLOUDY    54  48  82 NW13      29.71R
WARROAD        CLOUDY    52  48  87 NW10G16   29.70R
THIEF RVR FALL CLOUDY    55  54  94 NW14      29.73R
CROOKSTON      CLOUDY    57  54  88 N13       29.75R
FOSSTON        CLOUDY    55  54  94 NW7       29.75R
DETROIT LAKES  CLOUDY    59  55  88 NW12      29.76R
MOORHEAD       CLEAR     55  55 100 N6        29.76S
PARK RAPIDS    PTCLDY    60  56  86 NW16G24   29.72R
MAHNOMEN       CLOUDY    56  55  94 NW10      29.75R
$$
MNZ006-009>011-018-025>026-201000-
   North Central Minnesota

CITY           SKY/WX    TMP DP  RH WIND       PRES   REMARKS
BAUDETTE       PTCLDY    54  50  86 NW12G18   29.67R
FLAG ISLAND    CLOUDY    54  48  82 NW17      29.66R
INTL FALLS     CLOUDY    59  58  96 W10       29.61R
WASKISH        CLOUDY    55  54  94 W8        29.69R
BIG FORK       CLOUDY    61  57  88 NW6       29.66R
LONGVILLE      CLOUDY    61  59  94 W8        29.68R
GRAND RAPIDS   PTCLDY    61  57  88 NW12      29.65R
CRANE LAKE     CLOUDY    59  57  94 CALM      29.60S
ORR            CLOUDY    59  55  88 NW7       29.58S
COOK           MOCLDY    63  61  94 W9        29.61R
WALKER         CLOUDY    59  55  88 NW8       29.69R
$$
MNZ012-019>021-037-201000-
   Northeast Minnesota

CITY           SKY/WX    TMP DP  RH WIND       PRES   REMARKS
DULUTH         FOG       62  60  93 W12       29.59S VSB 3/4
ELY            CLOUDY    63  61  94 W3        29.58S FOG
HIBBING        MOCLDY    64  60  87 NW10      29.61S
EVELETH        CLOUDY    63  61  94 W6        29.61R FOG
DULUTH HARBOR  MOCLDY    61  59  94 SW12      29.58S
TWO HARBORS    CLOUDY    61  55  82 SW5       29.55S HAZE
SILVER BAY     FOG       61  61 100 S6        29.54F VSB 1/2
GRAND MARAIS     N/A     57  56  96 VRB6      29.52F
G MARAIS ARPRT FOG       59  55  88 SW5       29.57F VSB 1/4
$$
MNZ029>031-032-039>041-046>048-054>057-064-201000-
   West Central Minnesota

CITY           SKY/WX    TMP DP  RH WIND       PRES   REMARKS
FERGUS FALLS   CLOUDY    59  55  88 N10       29.76R
WHEATON        CLEAR     55  54  94 NW5       29.79R
MORRIS         CLEAR     57  55  94 NW5       29.75R
ALEXANDRIA     CLEAR     58  55  90 W7        29.74R
ELBOW LAKE     MOCLDY    58  56  94 NW12      29.74S
WADENA         CLOUDY    61  57  88 NW7       29.73R
GLENWOOD       PTCLDY    57  55  94 W8        29.75R
APPLETON       PTCLDY    59  54  82 W8        29.76R
BENSON         PTCLDY    57  55  94 NW7       29.75S
ORTONVILLE     PTCLDY    63  55  77 NW7       29.78R
MADISON        MOCLDY    63  55  77 NW7       29.78R
WILLMAR        FAIR      63  55  77 W7        29.75S
$$
MNZ033>034-036-042>043-049>051-058-059-201000-
   Central Minnesota

CITY           SKY/WX    TMP DP  RH WIND       PRES   REMARKS
ST CLOUD       PTCLDY    66  59  78 W9        29.68R
SAUK CENTRE    FAIR      57  55  91 W5        29.72S
PAYNESVILLE    PTCLDY    58  56  91 SW8       29.72S
AITKIN         MOCLDY    64  59  82 W6        29.65R
PINE RIVER     CLOUDY    61  57  88 W6        29.73R
BRAINERD       PTCLDY    61  58  90 NW12      29.69R
STAPLES        MOCLDY    59  57  94 NW8       29.72R
LONG PRAIRIE   FAIR      59  55  88 W7        29.72R
LITTLE FALLS   CLEAR     59  57  94 W5        29.70R
LITCHFIELD     PTCLDY    66  61  82 W7        29.72R
BUFFALO        MOCLDY    65  61  87 CALM      29.70R
MAPLE LAKE     MOCLDY    67  61  80 W6        29.70R
$$
MNZ037-044-045-052-053-201000-
   East Central Minnesota

CITY           SKY/WX    TMP DP  RH WIND       PRES   REMARKS
PRINCETON      CLOUDY    66  63  88 W6        29.67R
MORA           CLOUDY    61  59  94 W5        29.66R
CAMBRIDGE      CLOUDY    66  57  72 SW5       29.65R
RUSH CITY      CLOUDY    65  63  93 CALM      29.66R
MOOSE LAKE     CLOUDY    61  61 100 W7        29.60S
HINCKLEY       FAIR      61  61 100 W5        29.63R FOG
CLOQUET        CLOUDY    61  59  94 W9        29.60S FOG
MCGREGOR       CLOUDY    63  61  94 W8        29.64R
$$
MNZ071>073-080-081-089-090-097-098-201000-
   Southwest Minnesota

CITY           SKY/WX    TMP DP  RH WIND       PRES   REMARKS
MONTEVIDEO     PTCLDY    63  55  77 NW6       29.77R
GRANITE FALLS  PTCLDY    61  57  87 W6        29.77R
CANBY          MOCLDY    63  56  79 W6        29.80R
MARSHALL       MOCLDY    63  54  72 NW9       29.77R
REDWOOD FALLS  CLEAR     65  58  78 W8        29.75R
OLIVIA         PTCLDY    63  55  77 NW5       29.74R
PIPESTONE      MOCLDY    63  57  82 W5        29.82R
WINDOM         MOCLDY    64  63  94 W5        29.78R
WORTHINGTON    MOCLDY    66  64  94 W6        29.81R
JACKSON        MOCLDY    66  63  88 W8        29.79R
TRACY          PTCLDY    66  57  73 NW5       29.79R
SLAYTON        PTCLDY    64  59  83 CALM      29.81R
$$
MNZ065>067-074>077-082>085-091>093-201000-
   South Central Minnesota

CITY           SKY/WX    TMP DP  RH WIND       PRES   REMARKS
MANKATO        MOCLDY    66  61  82 S9        29.74S
NEW ULM        PTCLDY    64  64 100 W6        29.74R
ST JAMES       MOCLDY    68  64  88 S3        29.77R
FAIRMONT       CLOUDY    64  55  72 S8        29.77S
GLENCOE        MOCLDY    68  62  80 SW3       29.71R
FARIBAULT      CLOUDY    70  63  78 S9        29.75R
OWATONNA       CLOUDY    66  63  88 S10       29.77R
WASECA         CLOUDY    63  59  88 S12       29.78R
ALBERT LEA     CLOUDY    64  64 100 SW9       29.79R
$$
MNZ078>079-086>088-094>096-201000-
   Southeast Minnesota

CITY           SKY/WX    TMP DP  RH WIND       PRES   REMARKS
ROCHESTER      CLOUDY    65  63  93 S14       29.78R
RED WING       CLOUDY    70  63  78 W8        29.70R
STANTON        CLOUDY    68  64  86 SW15      29.71R
DODGE CENTER   CLOUDY    66  63  88 SW17G25   29.76R
WINONA         CLOUDY    70  63  78 SW9       29.74R
AUSTIN         CLOUDY    64  63  94 SW14      29.80R
PRESTON        CLOUDY    62  63 100 SW10      29.79R
$$
ABBREVIATIONS USED IN REMARKS
   TC - TEMPERATURES IN CELSIUS
  WCI - WIND CHILL INDEX
   HX - HEAT INDEX
  VSB - VISIBILITY
$$



USA.gov is the U.S. government's official web portal to all federal, state and local government web resources and services.